• In Hungary
  • List of Countries
  • For 7 days
  • Water Temperature
  • Satellite Maps
  • Weather Map
  • News
  • Weather Widgets
  • user-avatar
    Login

    Hourly Weather Namyur

    Today, 15 December, Friday

    Time Temperature Precipitation Wind Pressure Humidity
    00:00 -1°C° 0 mm 4 mps 733 mmHg 93%
    01:00 -1°C° 0 mm 4 mps 733 mmHg 93%
    02:00 -1°C° 0 mm 4 mps 733 mmHg 92%
    03:00 -1°C° 0 mm 4 mps 734 mmHg 92%
    04:00 -1°C° 0.1 mm 4 mps 734 mmHg 93%
    05:00 -1°C° 0.1 mm 4 mps 734 mmHg 93%
    06:00 +1°C° 0 mm 2 mps 734 mmHg 95%
    07:00 +2°C° 0.1 mm 2 mps 734 mmHg 95%
    08:00 +2°C° 0.1 mm 2 mps 734 mmHg 94%
    09:00 +1°C° 0.1 mm 3 mps 735 mmHg 94%
    10:00 +2°C° 0 mm 3 mps 735 mmHg 92%
    11:00 +3°C° 0 mm 3 mps 735 mmHg 91%
    12:00 +4°C° 0 mm 2 mps 736 mmHg 89%
    13:00 +4°C° 0.1 mm 2 mps 736 mmHg 90%
    14:00 +4°C° 0.1 mm 2 mps 736 mmHg 92%
    15:00 +4°C° 0.1 mm 1 mps 737 mmHg 93%
    16:00 +4°C° 0.2 mm 1 mps 737 mmHg 93%
    17:00 +4°C° 0.2 mm 1 mps 738 mmHg 94%
    18:00 +3°C° 0.2 mm 0 mps 738 mmHg 95%
    19:00 +3°C° 0 mm 1 mps 739 mmHg 95%
    20:00 +3°C° 0 mm 1 mps 739 mmHg 95%
    21:00 +2°C° 0 mm 1 mps 740 mmHg 96%
    22:00 +2°C° 0 mm 1 mps 741 mmHg 96%
    23:00 +2°C° 0 mm 1 mps 741 mmHg 96%

    Tomorrow, 16 December, Saturday

    Time Temperature Precipitation Wind Pressure Humidity
    00:00 +1°C° 0 mm 2 mps 742 mmHg 97%
    01:00 +1°C° 0 mm 2 mps 743 mmHg 96%
    02:00 +1°C° 0 mm 2 mps 744 mmHg 96%
    03:00 +1°C° 0 mm 2 mps 744 mmHg 96%
    04:00 +1°C° 0 mm 2 mps 745 mmHg 96%
    05:00 +1°C° 0 mm 2 mps 745 mmHg 96%
    06:00 +1°C° 0 mm 2 mps 746 mmHg 96%
    07:00 +2°C° 0.1 mm 2 mps 747 mmHg 95%
    08:00 +1°C° 0.1 mm 3 mps 747 mmHg 94%
    09:00 +1°C° 0.1 mm 3 mps 748 mmHg 93%
    10:00 +2°C° 0.2 mm 3 mps 749 mmHg 89%
    11:00 +3°C° 0.2 mm 4 mps 749 mmHg 86%
    12:00 +4°C° 0.2 mm 4 mps 749 mmHg 82%
    13:00 +3°C° 0.4 mm 4 mps 750 mmHg 83%
    14:00 +3°C° 0.4 mm 4 mps 750 mmHg 84%
    15:00 +3°C° 0.4 mm 4 mps 751 mmHg 84%
    16:00 +1°C° 0.2 mm 4 mps 751 mmHg 86%
    17:00 +1°C° 0.2 mm 4 mps 752 mmHg 88%
    18:00 0°C° 0.2 mm 4 mps 752 mmHg 90%
    19:00 0°C° 0.1 mm 4 mps 752 mmHg 91%
    20:00 0°C° 0.1 mm 4 mps 753 mmHg 91%
    21:00 0°C° 0.1 mm 3 mps 753 mmHg 91%
    22:00 0°C° 0.1 mm 3 mps 754 mmHg 92%
    23:00 0°C° 0.1 mm 3 mps 754 mmHg 92%

    Day after tomorrow, 17 December, Sunday

    Time Temperature Precipitation Wind Pressure Humidity
    00:00 0°C° 0.1 mm 3 mps 755 mmHg 92%
    01:00 0°C° 0.1 mm 3 mps 755 mmHg 93%
    02:00 0°C° 0.1 mm 3 mps 755 mmHg 93%
    03:00 0°C° 0.1 mm 3 mps 756 mmHg 94%
    04:00 0°C° 0.1 mm 3 mps 756 mmHg 94%
    05:00 0°C° 0.1 mm 3 mps 756 mmHg 95%
    06:00 0°C° 0.1 mm 3 mps 757 mmHg 95%
    07:00 0°C° 0 mm 3 mps 757 mmHg 95%
    08:00 0°C° 0 mm 3 mps 758 mmHg 94%
    09:00 +1°C° 0 mm 3 mps 758 mmHg 94%
    10:00 +1°C° 0.1 mm 3 mps 758 mmHg 92%
    11:00 +2°C° 0.1 mm 3 mps 759 mmHg 89%
    12:00 +3°C° 0.1 mm 3 mps 759 mmHg 87%
    13:00 +2°C° 0 mm 3 mps 759 mmHg 88%
    14:00 +2°C° 0 mm 3 mps 759 mmHg 88%
    15:00 +2°C° 0 mm 3 mps 759 mmHg 88%
    16:00 +1°C° 0 mm 3 mps 759 mmHg 88%
    17:00 0°C° 0 mm 3 mps 759 mmHg 88%
    18:00 0°C° 0 mm 3 mps 760 mmHg 88%
    19:00 -1°C° 0.2 mm 4 mps 760 mmHg 88%
    20:00 0°C° 0.2 mm 5 mps 760 mmHg 88%
    21:00 0°C° 0.2 mm 5 mps 759 mmHg 88%
    22:00 +1°C° 0.8 mm 6 mps 759 mmHg 89%
    23:00 +1°C° 0.8 mm 6 mps 759 mmHg 91%

    18 December, Monday

    Time Temperature Precipitation Wind Pressure Humidity
    00:00 +2°C° 0.8 mm 7 mps 758 mmHg 93%
    01:00 +3°C° 1.6 mm 7 mps 758 mmHg 94%
    02:00 +3°C° 1.6 mm 6 mps 757 mmHg 95%
    03:00 +4°C° 1.6 mm 6 mps 757 mmHg 96%
    04:00 +5°C° 0.9 mm 5 mps 757 mmHg 96%
    05:00 +6°C° 0.9 mm 5 mps 757 mmHg 97%
    06:00 +6°C° 0.9 mm 4 mps 757 mmHg 97%
    07:00 +6°C° 0.1 mm 4 mps 757 mmHg 96%
    08:00 +7°C° 0.1 mm 3 mps 758 mmHg 95%
    09:00 +5°C° 0.1 mm 3 mps 758 mmHg 94%
    10:00 +5°C° 0 mm 3 mps 759 mmHg 90%
    11:00 +7°C° 0 mm 3 mps 759 mmHg 85%
    12:00 +7°C° 0 mm 3 mps 759 mmHg 80%
    13:00 +5°C° 0 mm 3 mps 760 mmHg 83%
    14:00 +5°C° 0 mm 3 mps 760 mmHg 85%
    15:00 +4°C° 0 mm 3 mps 760 mmHg 87%
    16:00 +5°C° 0 mm 2 mps 761 mmHg 89%
    17:00 +4°C° 0 mm 2 mps 762 mmHg 91%
    18:00 +4°C° 0 mm 2 mps 762 mmHg 93%
    19:00 +4°C° 0 mm 1 mps 763 mmHg 94%
    20:00 +4°C° 0 mm 1 mps 764 mmHg 94%
    21:00 +4°C° 0 mm 1 mps 764 mmHg 94%
    22:00 +3°C° 0 mm 1 mps 764 mmHg 94%
    23:00 +3°C° 0 mm 1 mps 765 mmHg 94%

    19 December, Tuesday

    Time Temperature Precipitation Wind Pressure Humidity
    00:00 +3°C° 0 mm 1 mps 765 mmHg 94%
    01:00 +3°C° 0 mm 1 mps 765 mmHg 94%
    02:00 +3°C° 0 mm 1 mps 765 mmHg 94%
    03:00 +3°C° 0 mm 1 mps 765 mmHg 94%
    04:00 +2°C° 0 mm 1 mps 766 mmHg 94%
    05:00 +2°C° 0 mm 1 mps 766 mmHg 93%
    06:00 +2°C° 0 mm 1 mps 766 mmHg 93%
    07:00 +3°C° 0 mm 1 mps 767 mmHg 92%
    08:00 +3°C° 0 mm 1 mps 767 mmHg 92%
    09:00 +4°C° 0 mm 1 mps 767 mmHg 91%
    10:00 +5°C° 0 mm 1 mps 767 mmHg 88%
    11:00 +5°C° 0 mm 2 mps 767 mmHg 85%
    12:00 +6°C° 0 mm 2 mps 767 mmHg 82%
    13:00 +5°C° 0 mm 2 mps 767 mmHg 84%
    14:00 +5°C° 0 mm 2 mps 767 mmHg 87%
    15:00 +4°C° 0 mm 2 mps 767 mmHg 90%
    16:00 +4°C° 0 mm 2 mps 767 mmHg 90%
    17:00 +3°C° 0 mm 2 mps 768 mmHg 90%
    18:00 +3°C° 0 mm 2 mps 768 mmHg 91%
    19:00 +2°C° 0 mm 2 mps 768 mmHg 90%
    20:00 +2°C° 0 mm 2 mps 768 mmHg 89%
    21:00 +2°C° 0 mm 2 mps 768 mmHg 88%
    22:00 +2°C° 0 mm 2 mps 768 mmHg 88%
    23:00 +3°C° 0 mm 2 mps 768 mmHg 87%

    20 December, Wednesday

    Time Temperature Precipitation Wind Pressure Humidity
    00:00 +2°C° 0 mm 3 mps 768 mmHg 86%
    01:00 +2°C° 0 mm 3 mps 768 mmHg 87%
    02:00 +2°C° 0 mm 3 mps 768 mmHg 87%
    03:00 +2°C° 0 mm 3 mps 768 mmHg 87%
    04:00 +2°C° 0 mm 3 mps 768 mmHg 88%
    05:00 +2°C° 0 mm 3 mps 768 mmHg 89%
    06:00 +2°C° 0 mm 3 mps 768 mmHg 90%
    07:00 +3°C° 0 mm 3 mps 768 mmHg 91%
    08:00 +3°C° 0 mm 3 mps 769 mmHg 91%
    09:00 +4°C° 0 mm 3 mps 769 mmHg 92%
    10:00 +4°C° 0 mm 3 mps 769 mmHg 93%
    11:00 +5°C° 0 mm 3 mps 769 mmHg 93%
    12:00 +5°C° 0 mm 3 mps 769 mmHg 94%
    13:00 +6°C° 0.1 mm 2 mps 769 mmHg 94%
    14:00 +6°C° 0.1 mm 2 mps 769 mmHg 95%
    15:00 +6°C° 0.1 mm 2 mps 768 mmHg 96%
    16:00 +6°C° 0 mm 2 mps 769 mmHg 96%
    17:00 +6°C° 0 mm 2 mps 769 mmHg 97%
    18:00 +6°C° 0 mm 2 mps 769 mmHg 97%
    19:00 +7°C° 0 mm 2 mps 769 mmHg 97%
    20:00 +7°C° 0 mm 3 mps 769 mmHg 97%
    21:00 +7°C° 0 mm 3 mps 769 mmHg 97%
    22:00 +7°C° 0 mm 3 mps 769 mmHg 97%
    23:00 +7°C° 0 mm 3 mps 769 mmHg 97%
    Show more